ARCTURUS

Last updated on Tue Mar 03 2026 00:02:54 GMT+0000 (Coordinated Universal Time)

1 56371U 23060B 26061.67375725 -.00000078 00000+0 00000+0 0 9994 2 56371 2.4999 81.3012 0000539 342.7721 51.3956 1.00272732 10391
UTC large
Height (km)
Speed (km/s)
/
Latitude / Longitude
Inclination (degrees)
Orbital Period (minutes)
Azimuth
Elevation
Range (km)
Doppler Factor

Next 0 passes for location: London (51.5072 / 0.1276)

Sorry there are no passes over London.